Regional Weather Roundup
Issued by NWS

Home | Current Version | Previous Version | Text Only | Print | Product List | Glossary On
Versions: 1 2 3 4 5 6 7 8 9 10 11 12 13 14 15 16 17 18 19 20 21 22 23 24 25 26 27 28 29 30 31 32 33 34 35 36 37 38 39 40 41 42 43 44 45 46 47 48 49 50
000
ASUS46 KPQR 271110
RWROR

OREGON REGIONAL WEATHER ROUNDUP
NATIONAL WEATHER SERVICE PORTLAND OR
400 AM PDT WED JUL 27 2016

NOTE: "FAIR" INDICATES FEW OR NO CLOUDS BELOW 12,000 FEET WITH
NO SIGNIFICANT WEATHER AND/OR OBSTRUCTIONS TO VISIBILITY.

ORZ001>013-271200-
NORTHWEST OREGON


CITY           SKY/WX    TMP DP  RH WIND       PRES   REMARKS
ASTORIA        CLOUDY    59  55  87 NW9       30.13S
NEWPORT        MOCLDY    52  50  93 CALM      30.14S
PORTLAND       PTCLDY    59  54  83 NW6       30.08S
VANCOUVER WA   CLEAR     59  54  83 VRB3      30.08S
SCAPPOOSE      CLEAR     57  53  86 VRB3      30.07S
HILLSBORO      CLEAR     55  32  41 CALM      30.08R
AURORA         CLEAR     58  53  84 CALM      30.09R
MCMINNVILLE    CLEAR     57  52  83 W5        30.09R
SALEM          CLEAR     60  52  74 N5        30.07R
CORVALLIS        N/A     57  52  82 NW5       30.08R
EUGENE         CLEAR     57  52  83 NW7       30.06S
$$

ORZ021-028-271200-
SOUTHWEST OREGON


CITY           SKY/WX    TMP DP  RH WIND       PRES   REMARKS
NORTH BEND     CLOUDY    54  54 100 N8        30.09S
BROOKINGS      CLEAR     53  51  93 CALM      29.95S
ROSEBURG       CLEAR     69  54  58 N3        30.04R
SEXTON SUMMIT  CLEAR     59  47  64 N13       30.11S
MEDFORD        CLEAR     68  51  54 W3        30.01R
$$

ORZ014>016-041-271200-
COLUMBIA GORGE


CITY           SKY/WX    TMP DP  RH WIND       PRES   REMARKS
TROUTDALE      CLEAR     59  55  87 CALM      30.08R
THE DALLES     CLEAR     68  57  68 NW8       29.99R
$$

ORZ029>031-041-044-049-050-061>064-502-503-505>511-271200-
EASTERN OREGON


CITY           SKY/WX    TMP DP  RH WIND       PRES   REMARKS
REDMOND        CLEAR     53  39  59 S7        30.10R
BEND           CLEAR     55  45  67 CALM      30.11S
PRINEVILLE     CLEAR     50  43  76 S3        30.11S
KLAMATH FALLS  CLEAR     54  50  86 CALM      30.11S
LAKEVIEW       CLEAR    N/A N/A N/A NW15      30.15F
HERMISTON      CLEAR     63  55  75 SW3       29.98R
PENDLETON      CLEAR     65  47  52 S3        30.02R
JOHN DAY       CLEAR     65  45  46 CALM      30.11S
MEACHAM        CLEAR     46  42  86 CALM      30.13S
LA GRANDE      CLEAR     55  39  54 SE3       30.06S
BAKER CITY     CLEAR     55  46  71 S6        30.09R
BURNS          CLEAR     51  39  63 W5        30.12S
ROME             N/A     61  32  33 CALM      30.09S
ONTARIO        CLEAR     78  47  33 W13       29.99R
$$



USA.gov is the U.S. government's official web portal to all federal, state and local government web resources and services.